Location: Loriol
(44.0763°N, 4.9992°E)
Time: 16:31:21
(UTC+00:00)

Daily predictions for brighter satellites

Satellite Brightness Start Highest point End
(mag) Time Altitude Azimuth Time Altitude Azimuth Time Altitude Azimuth
CORIOLIS 4.2 17:04:24 10° SSE 17:09:47 81° ENE 17:15:11 10° NNW
NOSS 2-1 (D) 3.5 17:07:44 10° S 17:10:54 38° ESE 17:14:04 10° NE
ERS-2 3.9 17:09:25 10° ENE 17:11:28 14° E 17:13:31 10° SE
Okean O Rocket 1.6 17:07:04 10° SSE 17:11:29 73° ENE 17:15:55 10° N
USA 229 DEB 4.4 17:05:20 10° NNW 17:12:05 40° NE 17:19:10 10° ESE
USA 229 4.4 17:05:26 10° NNW 17:12:10 39° NE 17:19:14 10° ESE
SL-24 R/B 4.3 17:08:22 10° SSE 17:12:48 89° W 17:17:41 10° NNW
Cosmos 1340 3.9 17:10:35 10° SE 17:13:27 21° E 17:16:20 10° NE
Cosmos 990 Rocket 4.3 17:12:50 10° S 17:17:47 45° ESE 17:22:43 10° NNE
Cosmos 1812 Rocket 4.5 17:14:32 10° NNE 17:18:16 27° ENE 17:21:57 10° SE
Okean-O 3.9 17:16:31 10° ESE 17:19:48 21° ENE 17:23:05 10° NNE
Cosmos 1455 2.2 17:17:59 10° N 17:21:47 58° E 17:25:34 10° SSE
SeaSat 1 4.2 17:18:08 10° N 17:22:18 28° NW 17:26:26 10° WSW
Helios 1A Rocket 4.5 17:21:19 10° E 17:23:51 16° ENE 17:26:25 10° NNE
Cosmos 158 Rocket 4.0 17:18:36 10° NNW 17:24:00 80° ENE 17:29:24 10° SSE
Cosmos 2263 Rocket 4.4 17:20:31 10° W 17:24:35 20° NW 17:28:40 10° N
CZ-2C R/B 3.6 17:19:34 10° SE 17:24:41 43° ENE 17:30:02 10° N
H-2A R/B 3.4 17:20:51 10° S 17:24:51 53° W 17:29:03 10° NNW
ARGOS 4.4 17:21:56 10° ESE 17:25:42 20° ENE 17:29:29 10° NNE
Aureole 2 Rocket 4.2 17:23:20 10° WSW 17:25:58 26° WNW 17:28:41 10° N
CZ-2D R/B 3.7 17:22:42 10° SE 17:26:16 37° ENE 17:29:50 10° N
SKYMED 2 4.0 17:22:35 10° NNE 17:26:45 43° E 17:30:53 10° S
USA 290 4.2 17:25:41 10° NNE 17:26:51 12° NE 17:27:14 11° ENE
NOSS 3-1 (A) 4.4 17:20:47 10° NNW 17:27:46 44° NE 17:35:48 10° ESE
Meteor 2-13 Rocket 4.4 17:25:11 10° S 17:31:17 78° E 17:37:28 10° N
Lacrosse 5 3.0 17:26:38 10° WNW 17:31:29 48° SW 17:36:18 10° SSE
Cosmos 1939 Rocket 2.8 17:29:12 10° SSE 17:33:16 73° ENE 17:37:20 10° N
CZ-2C R/B 4.2 17:32:25 10° NE 17:35:38 15° E 17:38:51 10° ESE
Feng Yun 1-1 Rocket 4.2 17:35:12 10° SSE 17:40:37 70° ENE 17:46:12 10° N
Meteor 1-21 Rocket 4.1 17:35:16 10° S 17:40:47 81° E 17:46:23 10° NNE
Aureole 3 Rocket 3.3 17:41:00 10° NNE 17:43:54 30° E 17:47:20 10° SE
Cosmos 1092 Rocket 4.0 17:38:50 10° S 17:44:54 62° E 17:50:58 10° NNE
Cosmos 2058 Rocket 4.4 17:41:33 10° NNW 17:45:51 45° W 17:50:08 10° SSW
Iridium 4 Rocket 3.8 17:42:37 10° N 17:47:49 43° E 17:52:32 10° SSE
ISS -2.1 17:46:47 10° WNW 17:49:39 25° N 17:51:38 15° NE
USA 234 4.4 17:47:42 12° NE 17:52:35 28° N 17:57:59 10° WNW
Cosmos 2344 4.4 17:43:37 10° NW 17:52:43 59° NE 18:05:19 10° SE
Cosmos 1626 Rocket 3.6 17:49:07 10° S 17:53:30 82° W 17:57:58 10° N
Nadezhda 4 Rocket 4.4 17:49:39 10° SSW 17:55:51 68° W 18:02:01 10° N
Cosmos 405 3.3 17:52:51 10° N 17:56:14 41° ENE 17:59:34 10° SSE
BREEZE-M DEB (TANK) 3.0 17:55:27 10° NW 17:57:24 27° NNE 17:57:53 25° NE
CZ-4 R/B 1.5 17:54:10 10° SSE 17:58:06 51° ENE 18:01:59 10° N
Cosmos 1833 Rocket 3.0 17:53:59 10° NNW 17:59:21 44° ENE 18:04:41 10° SE
Cosmos 44 3.9 17:54:53 10° SW 17:59:37 57° NW 18:04:41 10° NNE
Cosmos 1898 Rocket 3.6 18:00:41 10° SSW 18:05:56 81° WNW 18:11:12 10° NNE
NOSS 2-1 (E) 3.4 18:02:48 10° SW 18:06:03 55° NW 18:08:25 18° NNE
Cosmos 1703 3.6 18:03:06 10° SSW 18:06:57 64° W 18:10:49 10° N
COSMOS 2406 3.3 18:02:33 10° NNW 18:08:17 59° ENE 18:13:57 10° SE
X-37B 0.5 18:06:17 10° W 18:09:28 76° N 18:10:23 42° E
Cosmos 1680 Rocket 4.1 18:05:59 10° NNW 18:11:08 60° WSW 18:16:14 10° S
Cosmos 2082 Rocket 2.9 18:09:32 10° N 18:14:42 33° NE 18:16:35 27° E
Cosmos 1689 Rocket 1.8 18:14:20 53° NE 18:14:47 63° ESE 18:17:35 10° S
COSMO-SKYMED 1 3.2 18:10:35 10° N 18:14:51 57° WNW 18:19:06 10° SSW
Cosmos 1844 Rocket 4.3 18:10:47 10° WSW 18:15:46 31° NW 18:20:46 10° N
Cosmos 372 Rocket 4.2 18:11:20 10° S 18:16:18 48° ESE 18:19:29 21° NE
Meteor 2-15 4.4 18:12:31 10° N 18:18:41 66° E 18:24:46 10° SSE
Cosmos 1758 Rocket 3.5 18:14:33 10° S 18:18:59 75° E 18:23:29 10° NNE
Meteor 2-8 Rocket 4.5 18:14:10 10° N 18:20:18 85° W 18:26:25 10° S
PSLV R/B 3.9 18:18:19 10° NNE 18:22:34 87° ESE 18:26:46 10° SSW
Cosmos-2242 2.9 18:18:25 10° N 18:22:42 66° E 18:26:59 10° SSE
Cosmos 2098 Rocket 4.3 18:18:12 10° S 18:25:32 83° E 18:32:52 10° N
Cosmos 1346 Rocket 2.7 18:22:24 10° S 18:26:17 63° E 18:27:48 34° NNE
H-2A R/B 1.9 18:24:13 10° SSE 18:29:15 89° ENE 18:34:28 10° NNW
Cosmos 2026 Rocket 4.1 18:25:21 10° SSW 18:31:28 76° W 18:37:44 10° N
CZ-4B R/B 3.7 18:28:47 10° NNW 18:31:30 23° WNW 18:34:08 10° WSW
Cosmos 1937 Rocket 3.8 18:26:26 10° SSW 18:31:43 67° WNW 18:37:02 10° NNE
Cosmos 1417 Rocket 4.4 18:28:26 10° N 18:34:37 61° E 18:40:50 10° SSE
Cosmos 2298 Rocket 4.4 18:31:24 10° S 18:36:10 40° ESE 18:36:10 40° ESE
CSL-04 Rocket 3.6 18:31:28 10° SSE 18:36:51 69° ENE 18:42:21 10° N
Cosmos 1553 Rocket 3.9 18:31:44 10° N 18:38:10 75° E 18:44:28 10° SSE
Cosmos 44 Rocket 4.0 18:35:03 10° S 18:38:49 35° SE 18:38:49 35° SE
Cosmos 2278 Rocket 2.1 18:34:38 10° SSW 18:40:19 88° ESE 18:44:01 23° NNE
YAOGAN 1 3.0 18:36:34 10° S 18:40:50 62° WSW 18:45:08 10° NNW
SJ 16-02 4.2 18:42:59 10° W 18:45:11 13° NW 18:47:22 10° NNW
ERS-2 3.5 18:41:50 10° N 18:45:11 39° WNW 18:48:34 10° SW
Meteor 2-15 Rocket 4.4 18:44:36 10° N 18:50:48 89° W 18:56:58 10° S
CZ-3B R/B 2.8 18:47:39 10° WNW 18:50:55 76° SW 19:02:43 10° SE
Cosmos 1825 Rocket 3.9 18:47:32 10° SSW 18:51:53 66° W 18:55:29 15° N
Okean-O 3.8 18:51:47 10° S 18:55:59 42° W 19:00:13 10° NNW
Cosmos 1655 Rocket 3.8 18:51:54 10° S 18:58:03 68° E 19:04:14 10° NNE
Helios 1A Rocket 3.8 18:54:35 10° S 18:58:36 50° W 19:02:40 10° NNW
USA 267 4.2 19:00:50 28° SE 19:00:50 28° SE 19:05:18 10° S
USA 290 4.2 18:58:26 10° NW 19:00:05 25° NW 19:00:05 25° NW
USA 229 DEB 4.4 18:56:11 10° NW 19:03:25 61° WSW 19:11:00 10° SSE
S3M 3.8 18:57:19 10° N 19:03:28 81° E 19:09:36 10° S
USA 229 4.3 18:56:17 10° NW 19:03:31 61° WSW 19:11:07 10° SSE
ARGOS 3.5 19:00:09 10° S 19:05:28 64° WSW 19:10:49 10° NNW
CZ-2C R/B 2.8 19:13:14 26° N 19:16:30 78° WNW 19:22:07 10° SSW
Cosmos 1953 Rocket 4.2 19:12:50 10° SSW 19:16:54 53° W 19:16:54 53° W
ISS -0.5 19:24:22 10° NW 19:24:37 11° NW 19:24:37 11° NW
USA 234 4.0 19:35:03 37° N 19:35:03 37° N 19:40:27 10° NW
Cosmos 1833 Rocket 4.4 19:38:17 10° NW 19:43:04 29° WSW 19:47:49 10° SSW
Cosmos 2082 Rocket 3.3 19:53:33 10° NW 19:58:32 40° W 19:58:32 40° W
Cosmos 2278 Rocket 4.5 20:21:24 10° W 20:25:12 18° NW 20:25:56 18° NW
